EW4609 Weather Reports


time (UTC)temp
C
wind
direction
speed
KPH
gust
KPH
rain 1hr
cm
rain 24hr
cm
rain mn
cm
humidity
%
barometer
mb
20260509173041 27 293 0.0 0.0 0.00 0.00 0.00 32 1010.3
20260509171540 27 292 0.0 0.0 0.00 0.00 0.00 31 1010.5
20260509170033 27 292 0.0 0.0 0.00 0.00 0.00 30 1010.6
20260509164528 27 306 0.0 0.0 0.00 0.00 0.00 29 1010.8
20260509163046 26 306 0.0 0.0 0.00 0.00 0.00 28 1010.9
20260509161524 26 302 0.0 0.0 0.00 0.00 0.00 27 1010.7
20260509160014 26 301 0.0 0.0 0.00 0.00 0.00 22 1010.6
20260509154608 25 300 0.0 0.0 0.00 0.00 0.00 15 1010.6
20260509153053 25 294 0.0 0.0 0.00 0.00 0.00 18 1010.7
20260509151552 25 293 0.0 0.0 0.00 0.00 0.00 12 1010.7
20260509150055 24 279 0.0 0.0 0.00 0.00 0.00 4 1010.8
20260509144539 23 267 0.0 0.0 0.00 0.00 0.00 3 1010.8
20260509143045 23 267 0.0 0.0 0.00 0.00 0.00 1 1010.8
20260509141533 22 267 0.0 0.0 0.00 0.00 0.00 1 1010.7
20260509140026 21 266 0.0 0.0 0.00 0.00 0.00 1 1010.8
20260509134510 21 267 0.0 0.0 0.00 0.00 0.00 1 1010.8
20260509133007 21 267 0.0 0.0 0.00 0.00 0.00 1 1010.6
20260509131503 21 267 0.0 0.0 0.00 0.00 0.00 1 1010.6
20260509130059 20 267 0.0 0.0 0.00 0.00 0.00 1 1010.6
20260509124559 20 267 0.0 0.0 0.00 0.00 0.00 1 1010.6
20260509123101 20 266 0.0 0.0 0.00 0.00 0.00 1 1010.6
20260509121555 20 266 0.0 0.0 0.00 0.00 0.00 1 1010.5
20260509120043 20 266 0.0 0.0 0.00 0.00 0.00 1 1010.3
20260509113107 19 264 0.0 0.0 0.00 0.00 0.00 1 1009.9
20260509111552 19 264 0.0 0.0 0.00 0.00 0.00 1 1009.4
20260509110047 19 264 0.0 0.0 0.00 0.00 0.00 1 1009.2
20260509104543 20 264 0.0 0.0 0.00 0.00 0.00 1 1009.1
20260509103038 20 264 0.0 0.0 0.00 0.00 0.00 1 1009.1
20260509101537 20 264 0.0 0.0 0.00 0.00 0.00 1 1009.1
20260509100028 20 264 0.0 0.0 0.00 0.00 0.00 1 1008.9
20260509094525 21 264 0.0 0.0 0.00 0.00 0.00 1 1008.5
20260509093003 21 264 0.0 0.0 0.00 0.00 0.00 1 1008.4
20260509091601 21 264 0.0 0.0 0.00 0.00 0.00 1 1008.3
20260509090055 21 267 0.0 0.0 0.00 0.00 0.00 1 1006.9
20260509084537 21 268 0.0 0.0 0.00 0.00 0.00 1 1006.9
20260509083030 21 311 0.0 0.0 0.00 0.00 0.00 1 1006.8
20260509081506 21 311 0.0 0.0 0.00 0.00 0.00 1 1007.0
20260509080056 21 311 0.0 0.0 0.00 0.00 0.00 1 1008.5
20260509074540 21 311 0.0 0.0 0.00 0.00 0.00 1 1009.4
20260509073021 21 329 0.0 0.0 0.00 0.00 0.00 1 1009.8
20260509071520 21 329 0.0 0.0 0.00 0.00 0.00 1 1010.5
20260509070001 21 335 0.0 0.0 0.00 0.00 0.00 1 1010.8
20260509064557 21 335 0.0 0.0 0.00 0.00 0.00 1 1011.3
20260509063104 20 336 0.0 0.0 0.00 0.00 0.00 1 1011.1
20260509061547 20 336 0.0 0.0 0.00 0.00 0.00 1 1011.0
20260509060043 20 336 0.0 0.0 0.00 0.00 0.00 1 1011.1
20260509054539 20 336 0.0 0.0 0.00 0.00 0.00 1 1011.4
20260509053042 21 336 0.0 0.0 0.00 0.00 0.00 1 1011.5
20260509051531 21 336 0.0 0.0 0.00 0.00 0.00 1 1011.7
20260509050025 21 336 0.0 0.0 0.00 0.00 0.00 1 1010.7
20260509044504 21 336 0.0 0.0 0.00 0.00 0.00 1 1010.6
20260509043046 21 336 0.0 0.0 0.00 0.00 0.00 1 1010.4
20260509041539 21 336 0.0 0.0 0.00 0.00 0.00 1 1010.3
20260509040015 21 336 0.0 0.0 0.00 0.00 0.00 1 1010.4
20260509034511 21 336 0.0 0.0 0.00 0.00 0.00 1 1010.8
20260509033103 21 336 0.0 0.0 0.00 0.00 0.00 1 1010.7
20260509031545 21 336 0.0 0.0 0.00 0.00 0.00 1 1010.0
20260509030026 21 336 0.0 0.0 0.00 0.00 0.00 1 1009.6
20260509024519 21 336 0.0 0.0 0.00 0.00 0.00 1 1009.3
20260509023058 21 336 0.0 0.0 0.00 0.00 0.00 1 1009.0
20260509021554 21 336 0.0 0.0 0.00 0.00 0.00 1 1009.1
20260509020031 21 336 0.0 0.0 0.00 0.00 0.00 1 1008.6
20260509014528 22 336 0.0 0.0 0.00 0.00 0.00 1 1009.0
20260509013010 22 336 0.0 0.0 0.00 0.00 0.00 1 1009.1
20260509011508 22 336 0.0 0.0 0.00 0.00 0.00 1 1009.1
20260509010007 22 336 0.0 0.0 0.00 0.00 0.00 1 1008.7
20260509004602 22 336 0.0 0.0 0.00 0.00 0.00 1 1008.5
20260509003055 22 336 0.0 0.0 0.00 0.00 0.00 1 1008.4
20260509001553 22 336 0.0 0.0 0.00 0.00 0.00 1 1008.4
20260509000047 22 336 0.0 0.0 0.00 0.00 0.00 1 1008.5
20260508234541 22 336 0.0 0.0 0.00 0.00 0.00 1 1008.6
20260508233014 22 336 0.0 0.0 0.00 0.00 0.00 1 1008.9
20260508231509 22 336 0.0 0.0 0.00 0.00 0.00 1 1008.9
20260508230053 23 336 0.0 0.0 0.00 0.00 0.00 1 1008.9
20260508224607 23 336 0.0 0.0 0.00 0.00 0.00 1 1008.8
20260508223044 23 336 0.0 0.0 0.00 0.00 0.00 1 1008.9
20260508221552 23 335 0.0 0.0 0.00 0.00 0.00 1 1008.9
20260508220036 23 336 0.0 0.0 0.00 0.00 0.00 1 1009.0
20260508214538 23 17 0.0 0.0 0.00 0.00 0.00 3 1009.1
20260508213032 23 15 0.0 0.0 0.00 0.00 0.00 3 1009.3
20260508211525 22 14 0.0 0.0 0.00 0.00 0.00 1 1009.6
20260508210118 22 14 0.0 0.0 0.00 0.00 0.00 2 1009.8
20260508204556 22 13 0.0 0.0 0.00 0.00 0.00 1 1009.7
20260508203059 21 12 0.0 0.0 0.00 0.00 0.00 1 1010.2
20260508201537 22 12 0.0 0.0 0.00 0.00 0.00 1 1011.0
20260508200037 22 12 0.0 0.0 0.00 0.00 0.00 1 1011.4
20260508194511 22 13 0.0 0.0 0.00 0.00 0.00 3 1011.3
20260508193106 22 13 0.0 0.0 0.00 0.00 0.00 1 1011.2
20260508191539 22 13 0.0 0.0 0.00 0.00 0.00 1 1011.4
20260508190035 22 13 0.0 0.0 0.00 0.00 0.00 1 1011.4
20260508184523 22 12 0.0 0.0 0.00 0.00 0.00 1 1011.7
20260508183010 22 13 0.0 0.0 0.00 0.00 0.00 1 1011.8
20260508181601 22 13 0.0 0.0 0.00 0.00 0.00 2 1011.9
20260508180043 22 10 0.0 0.0 0.00 0.00 0.00 4 1012.2
20260508174527 22 13 0.0 0.0 0.00 0.00 0.00 4 1012.5